Time,TemperatureF,DewpointF,PressureIn,WindDirection,WindDirectionDegrees,WindSpeedMPH,WindSpeedGustMPH,Humidity,HourlyPrecipIn,Conditions,Clouds,dailyrainin,SoftwareType,DateUTC
2013-02-25 00:01:00,69.0,69.0,29.93,SE,139,2.0,7.0,100,99.99,,,-99.99,,2013-02-25 05:01:00,
2013-02-25 00:11:00,69.0,69.0,29.93,SE,139,2.0,7.0,100,99.99,,,-99.99,,2013-02-25 05:11:00,
2013-02-25 00:22:00,69.0,69.0,29.91,ESE,110,4.0,8.0,100,99.99,,,-99.99,,2013-02-25 05:22:00,
2013-02-25 00:32:00,69.0,69.0,29.91,SSE,148,1.0,3.0,100,99.99,,,-99.99,,2013-02-25 05:32:00,
2013-02-25 00:42:00,69.0,69.0,29.91,SSE,148,1.0,3.0,100,99.99,,,-99.99,,2013-02-25 05:42:00,
2013-02-25 00:52:00,69.0,69.0,29.91,SE,136,2.0,3.0,100,99.99,,,-99.99,,2013-02-25 05:52:00,
2013-02-25 01:02:00,68.0,68.0,29.90,SE,138,1.0,2.0,100,99.99,,,-99.99,,2013-02-25 06:02:00,
2013-02-25 01:11:00,68.0,68.0,29.90,SE,138,1.0,2.0,100,99.99,,,-99.99,,2013-02-25 06:11:00,
2013-02-25 01:21:00,68.0,68.0,29.91,ESE,107,1.0,2.0,100,99.99,,,-99.99,,2013-02-25 06:21:00,
2013-02-25 01:32:00,68.0,68.0,29.91,East,100,1.0,2.0,100,99.99,,,-99.99,,2013-02-25 06:32:00,
2013-02-25 01:42:00,68.0,68.0,29.91,East,100,1.0,2.0,100,99.99,,,-99.99,,2013-02-25 06:42:00,
2013-02-25 01:52:00,68.0,68.0,29.90,East,94,2.0,2.0,100,99.99,,,-99.99,,2013-02-25 06:52:00,
2013-02-25 02:01:00,67.0,67.0,29.91,North,0,0.0,0.0,100,99.99,,,-99.99,,2013-02-25 07:01:00,
2013-02-25 02:11:00,67.0,67.0,29.89,North,0,0.0,0.0,100,99.99,,,-99.99,,2013-02-25 07:11:00,
2013-02-25 02:21:00,67.0,67.0,29.89,North,0,0.0,0.0,100,99.99,,,-99.99,,2013-02-25 07:21:00,
2013-02-25 02:32:00,67.0,67.0,29.89,NNE,13,3.0,5.0,100,99.99,,,-99.99,,2013-02-25 07:32:00,
2013-02-25 02:42:00,67.0,67.0,29.89,NNE,13,3.0,5.0,100,99.99,,,-99.99,,2013-02-25 07:42:00,
2013-02-25 02:52:00,67.0,67.0,29.90,NE,39,2.0,3.0,100,99.99,,,-99.99,,2013-02-25 07:52:00,
2013-02-25 03:01:00,67.0,67.0,29.89,NNE,14,1.0,2.0,100,99.99,,,-99.99,,2013-02-25 08:01:00,
2013-02-25 03:11:00,67.0,67.0,29.88,ENE,65,1.0,3.0,100,99.99,,,-99.99,,2013-02-25 08:11:00,
2013-02-25 03:21:00,67.0,67.0,29.88,ENE,65,1.0,3.0,100,99.99,,,-99.99,,2013-02-25 08:21:00,
2013-02-25 03:32:00,67.0,67.0,29.87,East,90,1.0,2.0,100,99.99,,,-99.99,,2013-02-25 08:32:00,
2013-02-25 03:41:00,67.0,67.0,29.87,East,90,1.0,2.0,100,99.99,,,-99.99,,2013-02-25 08:41:00,
2013-02-25 03:52:00,67.0,67.0,29.87,SE,132,1.0,3.0,100,99.99,,,-99.99,,2013-02-25 08:52:00,
2013-02-25 04:01:00,67.0,67.0,29.86,SSE,158,1.0,2.0,100,99.99,,,-99.99,,2013-02-25 09:01:00,
2013-02-25 04:12:00,67.0,67.0,29.86,SSE,158,1.0,2.0,100,99.99,,,-99.99,,2013-02-25 09:12:00,
2013-02-25 04:21:00,67.0,67.0,29.86,SE,136,1.0,3.0,100,99.99,,,-99.99,,2013-02-25 09:21:00,
2013-02-25 04:32:00,67.0,67.0,29.85,North,0,0.0,0.0,100,99.99,,,-99.99,,2013-02-25 09:32:00,
2013-02-25 04:42:00,67.0,67.0,29.85,North,0,0.0,0.0,100,99.99,,,-99.99,,2013-02-25 09:42:00,
2013-02-25 04:52:00,67.0,67.0,29.85,SSE,163,2.0,4.0,100,99.99,,,-99.99,,2013-02-25 09:52:00,
2013-02-25 05:01:00,67.0,67.0,29.85,SSE,165,1.0,3.0,100,99.99,,,-99.99,,2013-02-25 10:01:00,
2013-02-25 05:11:00,67.0,67.0,29.85,North,0,0.0,0.0,100,99.99,,,-99.99,,2013-02-25 10:11:00,
2013-02-25 05:21:00,67.0,67.0,29.85,North,0,0.0,0.0,100,99.99,,,-99.99,,2013-02-25 10:21:00,
2013-02-25 05:32:00,67.0,67.0,29.86,South,174,0.0,2.0,100,99.99,,,-99.99,,2013-02-25 10:32:00,
2013-02-25 05:42:00,67.0,67.0,29.86,South,174,0.0,2.0,100,99.99,,,-99.99,,2013-02-25 10:42:00,
2013-02-25 05:52:00,66.0,66.0,29.86,SE,128,1.0,3.0,100,99.99,,,-99.99,,2013-02-25 10:52:00,
2013-02-25 06:01:00,66.0,66.0,29.85,SE,136,1.0,4.0,100,99.99,,,-99.99,,2013-02-25 11:01:00,
2013-02-25 06:11:00,66.0,66.0,29.85,SE,136,1.0,4.0,100,99.99,,,-99.99,,2013-02-25 11:11:00,
2013-02-25 06:22:00,67.0,67.0,29.85,SSE,153,0.0,3.0,100,99.99,,,-99.99,,2013-02-25 11:22:00,
2013-02-25 06:32:00,67.0,67.0,29.86,SE,136,0.0,2.0,100,99.99,,,-99.99,,2013-02-25 11:32:00,
2013-02-25 06:42:00,67.0,67.0,29.86,SE,136,0.0,2.0,100,99.99,,,-99.99,,2013-02-25 11:42:00,
2013-02-25 06:52:00,67.0,67.0,29.86,North,0,0.0,0.0,100,99.99,,,-99.99,,2013-02-25 11:52:00,
2013-02-25 07:02:00,67.0,67.0,29.87,South,174,1.0,3.0,100,99.99,,,-99.99,,2013-02-25 12:02:00,
2013-02-25 07:11:00,67.0,67.0,29.87,South,174,1.0,3.0,100,99.99,,,-99.99,,2013-02-25 12:11:00,
2013-02-25 07:21:00,67.0,67.0,29.88,North,0,0.0,0.0,100,99.99,,,-99.99,,2013-02-25 12:21:00,
2013-02-25 07:32:00,67.0,67.0,29.89,North,0,0.0,0.0,100,99.99,,,-99.99,,2013-02-25 12:32:00,
2013-02-25 07:42:00,67.0,67.0,29.89,North,0,0.0,0.0,100,99.99,,,-99.99,,2013-02-25 12:42:00,
2013-02-25 07:55:00,68.0,68.0,29.89,North,0,0.0,0.0,100,99.99,,,-99.99,,2013-02-25 12:55:00,
2013-02-25 08:02:00,68.0,68.0,29.88,SE,146,1.0,4.0,100,99.99,,,-99.99,,2013-02-25 13:02:00,
2013-02-25 08:12:00,68.0,68.0,29.88,SE,146,1.0,4.0,100,99.99,,,-99.99,,2013-02-25 13:12:00,
2013-02-25 08:22:00,68.0,68.0,29.88,SSE,156,0.0,3.0,100,99.99,,,-99.99,,2013-02-25 13:22:00,
2013-02-25 08:32:00,69.0,69.0,29.89,SSE,160,3.0,5.0,100,99.99,,,-99.99,,2013-02-25 13:32:00,
2013-02-25 08:42:00,69.0,69.0,29.89,SSE,160,3.0,5.0,100,99.99,,,-99.99,,2013-02-25 13:42:00,
2013-02-25 08:52:00,69.0,69.0,29.89,SE,128,3.0,5.0,100,99.99,,,-99.99,,2013-02-25 13:52:00,
2013-02-25 09:03:00,70.0,70.0,29.90,SSE,162,3.0,7.0,100,99.99,,,-99.99,,2013-02-25 14:03:00,
2013-02-25 09:17:00,70.0,70.0,29.90,SSE,162,3.0,7.0,100,99.99,,,-99.99,,2013-02-25 14:17:00,
2013-02-25 09:32:00,71.0,71.0,29.90,WSW,240,3.0,5.0,100,99.99,,,-99.99,,2013-02-25 14:32:00,
2013-02-25 09:42:00,71.0,71.0,29.90,WSW,240,3.0,5.0,100,99.99,,,-99.99,,2013-02-25 14:42:00,
2013-02-25 09:52:00,71.0,71.0,29.89,South,172,3.0,6.0,100,99.99,,,-99.99,,2013-02-25 14:52:00,
2013-02-25 10:02:00,72.0,72.0,29.89,South,180,3.0,6.0,100,99.99,,,-99.99,,2013-02-25 15:02:00,
2013-02-25 10:11:00,72.0,72.0,29.89,South,180,3.0,6.0,100,99.99,,,-99.99,,2013-02-25 15:11:00,
2013-02-25 10:22:00,75.0,75.0,29.88,SSE,159,3.0,9.0,100,99.99,,,-99.99,,2013-02-25 15:22:00,
2013-02-25 10:32:00,78.0,76.0,29.88,SSE,153,4.0,10.0,95,99.99,,,-99.99,,2013-02-25 15:32:00,
2013-02-25 10:42:00,78.0,76.0,29.88,SSE,153,4.0,10.0,95,99.99,,,-99.99,,2013-02-25 15:42:00,
2013-02-25 10:52:00,80.0,69.0,29.88,SW,232,5.0,13.0,69,99.99,,,-99.99,,2013-02-25 15:52:00,
2013-02-25 11:02:00,81.0,67.0,29.88,SW,231,6.0,13.0,63,99.99,,,-99.99,,2013-02-25 16:02:00,
2013-02-25 11:12:00,81.0,67.0,29.88,SW,231,6.0,13.0,63,99.99,,,-99.99,,2013-02-25 16:12:00,
2013-02-25 11:22:00,81.0,66.0,29.88,West,280,4.0,9.0,60,99.99,,,-99.99,,2013-02-25 16:22:00,
2013-02-25 11:32:00,81.0,66.0,29.87,SW,232,5.0,9.0,60,99.99,,,-99.99,,2013-02-25 16:32:00,
2013-02-25 11:42:00,81.0,66.0,29.87,SW,232,5.0,9.0,60,99.99,,,-99.99,,2013-02-25 16:42:00,
2013-02-25 11:52:00,81.0,64.0,29.87,South,180,4.0,10.0,57,99.99,,,-99.99,,2013-02-25 16:52:00,
2013-02-25 12:01:00,82.0,66.0,29.86,WSW,256,4.0,9.0,58,99.99,,,-99.99,,2013-02-25 17:01:00,
2013-02-25 12:11:00,82.0,66.0,29.86,WSW,256,4.0,9.0,58,99.99,,,-99.99,,2013-02-25 17:11:00,
2013-02-25 12:21:00,82.0,65.0,29.85,WSW,239,4.0,7.0,56,99.99,,,-99.99,,2013-02-25 17:21:00,
2013-02-25 12:32:00,83.0,64.0,29.85,West,263,4.0,9.0,53,99.99,,,-99.99,,2013-02-25 17:32:00,
2013-02-25 12:42:00,83.0,64.0,29.85,West,263,4.0,9.0,53,99.99,,,-99.99,,2013-02-25 17:42:00,
2013-02-25 12:52:00,84.0,63.0,29.85,WSW,246,5.0,13.0,50,99.99,,,-99.99,,2013-02-25 17:52:00,
2013-02-25 13:01:00,84.0,63.0,29.83,WSW,245,5.0,11.0,50,99.99,,,-99.99,,2013-02-25 18:01:00,
2013-02-25 13:12:00,84.0,63.0,29.83,WSW,245,5.0,11.0,50,99.99,,,-99.99,,2013-02-25 18:12:00,
2013-02-25 13:21:00,83.0,62.0,29.83,West,266,4.0,11.0,49,99.99,,,-99.99,,2013-02-25 18:21:00,
2013-02-25 13:32:00,83.0,62.0,29.82,WSW,239,5.0,10.0,50,99.99,,,-99.99,,2013-02-25 18:32:00,
2013-02-25 13:42:00,83.0,62.0,29.82,WSW,239,5.0,10.0,50,99.99,,,-99.99,,2013-02-25 18:42:00,
2013-02-25 13:52:00,84.0,62.0,29.81,WSW,239,5.0,13.0,47,99.99,,,-99.99,,2013-02-25 18:52:00,
2013-02-25 14:01:00,85.0,61.0,29.80,SSE,162,5.0,13.0,45,99.99,,,-99.99,,2013-02-25 19:01:00,
2013-02-25 14:11:00,85.0,61.0,29.80,SSE,162,5.0,13.0,45,99.99,,,-99.99,,2013-02-25 19:11:00,
2013-02-25 14:21:00,86.0,62.0,29.80,WSW,246,5.0,13.0,45,99.99,,,-99.99,,2013-02-25 19:21:00,
2013-02-25 14:32:00,85.0,62.0,29.79,WSW,250,6.0,13.0,47,99.99,,,-99.99,,2013-02-25 19:32:00,
2013-02-25 14:42:00,85.0,62.0,29.79,WSW,250,6.0,13.0,47,99.99,,,-99.99,,2013-02-25 19:42:00,
2013-02-25 14:52:00,85.0,62.0,29.79,WSW,248,5.0,11.0,47,99.99,,,-99.99,,2013-02-25 19:52:00,
2013-02-25 15:01:00,85.0,62.0,29.78,West,263,5.0,10.0,46,99.99,,,-99.99,,2013-02-25 20:01:00,
2013-02-25 15:11:00,85.0,62.0,29.78,West,263,5.0,10.0,46,99.99,,,-99.99,,2013-02-25 20:11:00,
2013-02-25 15:21:00,85.0,62.0,29.78,West,262,5.0,11.0,47,99.99,,,-99.99,,2013-02-25 20:21:00,
2013-02-25 15:32:00,85.0,62.0,29.78,WSW,250,4.0,11.0,47,99.99,,,-99.99,,2013-02-25 20:32:00,
2013-02-25 15:42:00,85.0,62.0,29.78,WSW,250,4.0,11.0,47,99.99,,,-99.99,,2013-02-25 20:42:00,
2013-02-25 15:52:00,85.0,61.0,29.78,SW,224,6.0,12.0,45,99.99,,,-99.99,,2013-02-25 20:52:00,
2013-02-25 16:01:00,84.0,62.0,29.78,WSW,238,6.0,14.0,47,99.99,,,-99.99,,2013-02-25 21:01:00,
2013-02-25 16:11:00,84.0,62.0,29.78,WSW,238,6.0,14.0,47,99.99,,,-99.99,,2013-02-25 21:11:00,
2013-02-25 16:21:00,85.0,62.0,29.78,WSW,249,7.0,17.0,47,99.99,,,-99.99,,2013-02-25 21:21:00,
2013-02-25 16:32:00,86.0,63.0,29.78,West,276,8.0,16.0,46,99.99,,,-99.99,,2013-02-25 21:32:00,
2013-02-25 16:42:00,86.0,63.0,29.78,West,276,8.0,16.0,46,99.99,,,-99.99,,2013-02-25 21:42:00,
2013-02-25 16:52:00,86.0,62.0,29.78,WSW,240,7.0,14.0,44,99.99,,,-99.99,,2013-02-25 21:52:00,
2013-02-25 17:01:00,85.0,62.0,29.77,WSW,250,7.0,15.0,46,99.99,,,-99.99,,2013-02-25 22:01:00,
2013-02-25 17:11:00,85.0,62.0,29.77,WSW,250,7.0,15.0,46,99.99,,,-99.99,,2013-02-25 22:11:00,
2013-02-25 17:21:00,85.0,62.0,29.77,WSW,239,7.0,14.0,46,99.99,,,-99.99,,2013-02-25 22:21:00,
2013-02-25 17:32:00,84.0,61.0,29.77,WSW,248,6.0,14.0,46,99.99,,,-99.99,,2013-02-25 22:32:00,
2013-02-25 17:42:00,84.0,61.0,29.77,WSW,248,6.0,14.0,46,99.99,,,-99.99,,2013-02-25 22:42:00,
2013-02-25 17:52:00,83.0,61.0,29.77,WSW,255,4.0,11.0,48,99.99,,,-99.99,,2013-02-25 22:52:00,
2013-02-25 18:01:00,82.0,61.0,29.78,WSW,240,5.0,13.0,50,99.99,,,-99.99,,2013-02-25 23:01:00,
2013-02-25 18:11:00,82.0,61.0,29.78,WSW,240,5.0,13.0,50,99.99,,,-99.99,,2013-02-25 23:11:00,
2013-02-25 18:22:00,81.0,62.0,29.78,SW,235,4.0,8.0,52,99.99,,,-99.99,,2013-02-25 23:22:00,
2013-02-25 18:32:00,81.0,63.0,29.78,WSW,240,3.0,10.0,54,99.99,,,-99.99,,2013-02-25 23:32:00,
2013-02-25 18:42:00,81.0,63.0,29.78,WSW,240,3.0,10.0,54,99.99,,,-99.99,,2013-02-25 23:42:00,
2013-02-25 18:52:00,80.0,63.0,29.78,WSW,252,3.0,5.0,56,99.99,,,-99.99,,2013-02-25 23:52:00,
2013-02-25 19:01:00,79.0,62.0,29.79,West,263,3.0,6.0,57,99.99,,,-99.99,,2013-02-26 00:01:00,
2013-02-25 19:12:00,79.0,62.0,29.79,West,263,3.0,6.0,57,99.99,,,-99.99,,2013-02-26 00:12:00,
2013-02-25 19:22:00,79.0,63.0,29.79,WSW,249,3.0,8.0,58,99.99,,,-99.99,,2013-02-26 00:22:00,
2013-02-25 19:32:00,78.0,62.0,29.79,WSW,248,3.0,6.0,59,99.99,,,-99.99,,2013-02-26 00:32:00,
2013-02-25 19:42:00,78.0,62.0,29.79,WSW,248,3.0,6.0,59,99.99,,,-99.99,,2013-02-26 00:42:00,
2013-02-25 19:52:00,78.0,62.0,29.79,WSW,242,3.0,7.0,59,99.99,,,-99.99,,2013-02-26 00:52:00,
2013-02-25 20:02:00,77.0,62.0,29.79,WSW,252,2.0,7.0,60,99.99,,,-99.99,,2013-02-26 01:02:00,
2013-02-25 20:11:00,77.0,62.0,29.79,WSW,252,2.0,7.0,60,99.99,,,-99.99,,2013-02-26 01:11:00,
2013-02-25 20:21:00,77.0,63.0,29.80,WSW,255,2.0,6.0,62,99.99,,,-99.99,,2013-02-26 01:21:00,
2013-02-25 20:32:00,76.0,63.0,29.80,West,262,2.0,4.0,64,99.99,,,-99.99,,2013-02-26 01:32:00,
2013-02-25 20:42:00,76.0,63.0,29.80,West,262,2.0,4.0,64,99.99,,,-99.99,,2013-02-26 01:42:00,
2013-02-25 20:52:00,76.0,64.0,29.81,West,262,2.0,4.0,66,99.99,,,-99.99,,2013-02-26 01:52:00,
2013-02-25 21:01:00,75.0,65.0,29.80,SW,217,1.0,2.0,70,99.99,,,-99.99,,2013-02-26 02:01:00,
2013-02-25 21:11:00,75.0,65.0,29.80,SW,217,1.0,2.0,70,99.99,,,-99.99,,2013-02-26 02:11:00,
2013-02-25 21:21:00,75.0,66.0,29.80,West,266,1.0,4.0,73,99.99,,,-99.99,,2013-02-26 02:21:00,
2013-02-25 21:32:00,74.0,66.0,29.80,WSW,248,0.0,3.0,75,99.99,,,-99.99,,2013-02-26 02:32:00,
2013-02-25 21:42:00,74.0,66.0,29.80,WSW,248,0.0,3.0,75,99.99,,,-99.99,,2013-02-26 02:42:00,
2013-02-25 21:52:00,73.0,65.0,29.80,North,0,0.0,0.0,77,99.99,,,-99.99,,2013-02-26 02:52:00,
2013-02-25 22:02:00,73.0,67.0,29.80,North,0,0.0,0.0,81,99.99,,,-99.99,,2013-02-26 03:02:00,
2013-02-25 22:11:00,73.0,67.0,29.80,North,0,0.0,0.0,81,99.99,,,-99.99,,2013-02-26 03:11:00,
2013-02-25 22:21:00,72.0,67.0,29.79,North,0,0.0,0.0,84,99.99,,,-99.99,,2013-02-26 03:21:00,
2013-02-25 22:32:00,71.0,67.0,29.80,North,0,0.0,0.0,88,99.99,,,-99.99,,2013-02-26 03:32:00,
2013-02-25 22:42:00,71.0,67.0,29.80,North,0,0.0,0.0,88,99.99,,,-99.99,,2013-02-26 03:42:00,
2013-02-25 22:52:00,70.0,67.0,29.79,SW,236,1.0,3.0,90,99.99,,,-99.99,,2013-02-26 03:52:00,
2013-02-25 23:01:00,69.0,66.0,29.79,SW,214,2.0,3.0,91,99.99,,,-99.99,,2013-02-26 04:01:00,
2013-02-25 23:11:00,69.0,66.0,29.79,SW,214,2.0,3.0,91,99.99,,,-99.99,,2013-02-26 04:11:00,
2013-02-25 23:22:00,70.0,67.0,29.80,South,180,1.0,3.0,90,99.99,,,-99.99,,2013-02-26 04:22:00,
2013-02-25 23:32:00,70.0,67.0,29.80,WSW,240,0.0,1.0,91,99.99,,,-99.99,,2013-02-26 04:32:00,
2013-02-25 23:42:00,70.0,67.0,29.80,WSW,240,0.0,1.0,91,99.99,,,-99.99,,2013-02-26 04:42:00,
2013-02-25 23:52:00,70.0,67.0,29.81,North,0,0.0,0.0,91,99.99,,,-99.99,,2013-02-26 04:52:00,